Location: Petruro
(41.0333°N, 14.7833°E)
Time: 12:57:46
(UTC+00:00)

Resurs 1-4 Rocket - Pass Details

Date: 20 June 2021
Orbit: 800 x 813 km, 98.6° (Epoch: 29 July)

Event Time Altitude Azimuth Distance (km) Brightness Sun altitude
Rises 01:14:37 0° 6° (N) 3,342 6.5 -18.6°
Reaches altitude 10° 01:17:04 10° 360° (N) 2,407 5.4 -18.4°
Maximum altitude 01:22:02 42° 291° (WNW) 1,151 2.8 -17.9°
Enters shadow 01:24:23 27° 240° (WSW) 1,521 3.0 -17.6°
